This demonstration page uses our WeatherBlox Daily Observations layout. Learn more.

Left ArrowRight Arrow

Hourly Observations for October 15, 2020

Temp ( °F °C ) Dew Point ( °F °C ) Humidity (%) Winds ( mph kmh ) Pressure ( in mb ) Visibility ( mi km ) Precip ( " mm )
12:53 am 00:53 Clear 65 18.3 20 -6.7 18 18 SSW 3 6 29.71 1006 10 16 0.00 0.00
1:53 am 01:53 Clear 59 15 21 -6.1 23 23 N 6 9 29.72 1006 10 16 0.00 0.00
2:53 am 02:53 Clear 57 13.9 21 -6.1 25 25 N 5 7 29.72 1007 10 16 0.00 0.00
3:53 am 03:53 Clear 56 13.3 22 -5.6 27 27 N 9 15 29.72 1007 10 16 0.00 0.00
4:53 am 04:53 Mostly Cloudy with Haze 65 18.3 32 0 29 29 NNE 26 43 29.78 1008 3 5 0.00 0.00
5:41 am 05:41 Hazy 63 17.2 36 2.2 37 37 NNE 28 44 29.88 1012 5 8 0.00 0.00
5:53 am 05:53 Hazy 62 16.7 36 2.2 38 38 NNE 23 37 29.83 1010 6 10 0.00 0.00
6:53 am 06:53 Clear 60 15.6 36 2.2 41 41 NNE 26 43 29.88 1012 8 13 0.00 0.00
7:53 am 07:53 Clear 58 14.4 35 1.7 42 42 N 16 26 29.96 1015 10 16 0.00 0.00
8:53 am 08:53 Sunny 60 15.6 34 1.1 38 38 N 13 20 30.04 1017 10 16 0.00 0.00
9:53 am 09:53 Sunny 62 16.7 34 1.1 35 35 NNE 15 24 30.09 1019 10 16 0.00 0.00
10:53 am 10:53 Sunny 65 18.3 31 -0.6 28 28 NNE 17 28 30.11 1020 10 16 0.00 0.00
11:53 am 11:53 Sunny 67 19.4 31 -0.6 26 26 NNE 14 22 30.11 1020 10 16 0.00 0.00
12:53 pm 12:53 Sunny 70 21.1 32 0 25 25 NE 14 22 30.10 1019 10 16 0.00 0.00
1:53 pm 13:53 Sunny 71 21.7 33 0.6 25 25 VRB 6 9 30.08 1019 10 16 0.00 0.00
2:53 pm 14:53 Sunny 74 23.3 32 0 21 21 NNE 9 15 30.04 1017 8 13 0.00 0.00
3:53 pm 15:53 Sunny 76 24.4 32 0 20 20 NE 7 11 30.02 1017 10 16 0.00 0.00
4:53 pm 16:53 Sunny 76 24.4 32 0 20 20 ENE 9 15 30.00 1016 10 16 0.00 0.00
5:53 pm 17:53 Sunny 75 23.9 32 0 21 21 ENE 6 9 30.00 1016 10 16 0.00 0.00
6:53 pm 18:53 Sunny 72 22.2 31 -0.6 22 22 ENE 9 15 30.01 1016 10 16 0.00 0.00
7:53 pm 19:53 Clear 68 20 31 -0.6 25 25 E 7 11 30.05 1018 10 16 0.00 0.00
8:53 pm 20:53 Clear 64 17.8 31 -0.6 29 29 E 8 13 30.08 1019 10 16 0.00 0.00
9:53 pm 21:53 Clear 63 17.2 31 -0.6 30 30 E 9 15 30.10 1019 10 16 0.00 0.00
10:53 pm 22:53 Clear 59 15 30 -1.1 33 33 E 8 13 30.13 1020 10 16 0.00 0.00
11:53 pm 23:53 Clear 57 13.9 31 -0.6 37 37 E 8 13 30.15 1021 10 16 0.00 0.00

Powered by AerisWeather